Regional Weather Roundup
Issued by NWS

Home | Current Version | Previous Version | Graphics & Text | Print | Product List | Glossary On
Versions: 1 2 3 4 5 6 7 8 9 10 11 12 13 14 15 16 17 18 19 20 21 22 23 24 25 26 27 28 29 30 31 32 33 34 35 36 37 38 39 40 41 42 43 44 45 46 47 48 49 50
000
ASUS43 KFSD 081910
RWRSD

WEATHER ROUNDUP FOR SOUTH DAKOTA
NATIONAL WEATHER SERVICE SIOUX FALLS SD
100 PM CST THU DEC 08 2016

NOTE: "FAIR" INDICATES FEW OR NO CLOUDS BELOW 12,000 FEET WITH NO
SIGNIFICANT WEATHER AND/OR OBSTRUCTIONS TO VISIBILITY.


SDZ001>005-009-010-012>017-082000-
NORTHWEST AND NORTH CENTRAL SOUTH DAKOTA

CITY           SKY/WX    TMP DP  RH WIND       PRES   REMARKS
BUFFALO          N/A      5  -5  63 NW14      30.46F WCI -12
FAITH            N/A      1  -4  79 NW15      30.58F WCI -18
MOBRIDGE       MOSUNNY    4  -4  69 NW17      30.61F WCI -16
$$

SDZ012>016-024>037-041>051-057-063-072>074-082000-
SOUTHWEST AND SOUTH CENTRAL SOUTH DAKOTA

CITY           SKY/WX    TMP DP  RH WIND       PRES   REMARKS
RAPID CTY ARPT SUNNY     13  -3  49 N9        30.52F WCI   1
PIERRE         PTSUNNY    7   1  76 NW17      30.64F WCI -12
CUSTER         SUNNY     12  -8  40 S6        30.28F WCI   3
ELLSWORTH AFB  SUNNY     12  -4  49 VRB6      30.51F WCI   2
PHILIP         SUNNY     11  -3  53 NW12      30.63F WCI  -3
PINE RIDGE     SUNNY      7  -2  66 W3        30.54F
SPEARFISH      FAIR       7  -4  61 NW8       30.46F WCI  -6
WINNER         FAIR      14   0  53 NW20      30.62F WCI  -3
$$

SDZ004>011-016>023-039-040-082000-
NORTHEAST SOUTH DAKOTA

CITY           SKY/WX    TMP DP  RH WIND       PRES   REMARKS
ABERDEEN       CLOUDY    14   4  64 NW18      30.59F WCI  -3
WATERTOWN      CLOUDY    11   5  77 NW20      30.51S WCI  -7
BROOKINGS      CLOUDY    12   6  77 MISG      30.50F
SISSETON         N/A     14   7  73 NW21      30.53S WCI  -4
$$

SDZ017-020-022-023-036>040-048>070-082000-
SOUTHEAST SOUTH DAKOTA

CITY           SKY/WX    TMP DP  RH WIND       PRES   REMARKS
SIOUX FALLS    PTSUNNY   18   8  65 NW21G31   30.54F WCI   1
HURON          CLOUDY    16   6  65 NW17      30.61F WCI   0
CHAMBERLAIN    MOSUNNY   14   5  66 W20       30.63F WCI  -3
MITCHELL       SUNNY     18   5  57 NW16      30.62F WCI   3
YANKTON        SUNNY     19   5  53 NW18G29   30.60F WCI   4
$$

ABBREVIATIONS USED IN REMARKS
   TC - TEMPERATURE IN CELSIUS
  WCI - WIND CHILL INDEX
   HX - HEAT INDEX
  VSB - VISIBILITY





USA.gov is the U.S. government's official web portal to all federal, state and local government web resources and services.